Year,Month,Day,Hour,Minute,Value (Times are PST for temperature in C)
2010,09,27,00,00,13.40
2010,09,27,00,01,13.40
2010,09,27,00,02,13.40
2010,09,27,00,03,13.40
2010,09,27,00,04,13.40
2010,09,27,00,05,13.40
2010,09,27,00,06,13.40
2010,09,27,00,07,13.40
2010,09,27,00,08,13.40
2010,09,27,00,09,13.40
2010,09,27,00,10,13.40
2010,09,27,00,11,13.40
2010,09,27,00,12,13.40
2010,09,27,00,13,13.40
2010,09,27,00,14,13.40
2010,09,27,00,15,13.40
2010,09,27,00,16,13.40
2010,09,27,00,17,13.40
2010,09,27,00,18,13.40
2010,09,27,00,19,13.40
2010,09,27,00,20,13.40
2010,09,27,00,21,13.50
2010,09,27,00,22,13.40
2010,09,27,00,23,13.50
2010,09,27,00,24,13.50
2010,09,27,00,25,13.50
2010,09,27,00,26,13.50
2010,09,27,00,27,13.50
2010,09,27,00,28,13.50
2010,09,27,00,29,13.50
2010,09,27,00,30,13.50
2010,09,27,00,31,13.50
2010,09,27,00,32,13.50
2010,09,27,00,33,13.50
2010,09,27,00,34,13.50
2010,09,27,00,35,13.50
2010,09,27,00,36,13.50
2010,09,27,00,37,13.50
2010,09,27,00,38,13.50
2010,09,27,00,39,13.50
2010,09,27,00,40,13.50
2010,09,27,00,41,13.50
2010,09,27,00,42,13.50
2010,09,27,00,43,13.50
2010,09,27,00,44,13.50
2010,09,27,00,45,13.50
2010,09,27,00,46,13.50
2010,09,27,00,47,13.50
2010,09,27,00,48,13.50
2010,09,27,00,49,13.50
2010,09,27,00,50,13.50
2010,09,27,00,51,13.50
2010,09,27,00,52,13.50
2010,09,27,00,53,13.50
2010,09,27,00,54,13.60
2010,09,27,00,55,13.60
2010,09,27,00,56,13.60
2010,09,27,00,57,13.60
2010,09,27,00,58,13.60
2010,09,27,00,59,13.60
2010,09,27,01,00,13.60
2010,09,27,01,01,13.60
2010,09,27,01,02,13.60
2010,09,27,01,03,13.60
2010,09,27,01,04,13.60
2010,09,27,01,05,13.60
2010,09,27,01,06,13.60
2010,09,27,01,07,13.60
2010,09,27,01,08,13.60
2010,09,27,01,09,13.60
2010,09,27,01,10,13.60
2010,09,27,01,11,13.60
2010,09,27,01,12,13.60
2010,09,27,01,13,13.60
2010,09,27,01,14,13.60
2010,09,27,01,15,13.60
2010,09,27,01,16,13.60
2010,09,27,01,17,13.60
2010,09,27,01,18,13.60
2010,09,27,01,19,13.60
2010,09,27,01,20,13.60
2010,09,27,01,21,13.60
2010,09,27,01,22,13.60
2010,09,27,01,23,13.60
2010,09,27,01,24,13.60
2010,09,27,01,25,13.60
2010,09,27,01,26,13.60
2010,09,27,01,27,13.60
2010,09,27,01,28,13.60
2010,09,27,01,29,13.60
2010,09,27,01,30,13.50
2010,09,27,01,31,13.60
2010,09,27,01,32,13.50
2010,09,27,01,33,13.60
2010,09,27,01,34,13.60
2010,09,27,01,35,13.60
2010,09,27,01,36,13.60
2010,09,27,01,37,13.60
2010,09,27,01,38,13.60
2010,09,27,01,39,13.60
2010,09,27,01,40,13.60
2010,09,27,01,41,13.50
2010,09,27,01,42,13.60
2010,09,27,01,43,13.50
2010,09,27,01,44,13.60
2010,09,27,01,45,13.60
2010,09,27,01,46,13.60
2010,09,27,01,47,13.60
2010,09,27,01,48,13.60
2010,09,27,01,49,13.60
2010,09,27,01,50,13.60
2010,09,27,01,51,13.60
2010,09,27,01,52,13.60
2010,09,27,01,53,13.50
2010,09,27,01,54,13.50
2010,09,27,01,55,13.50
2010,09,27,01,56,13.50
2010,09,27,01,57,13.50
2010,09,27,01,58,13.50
2010,09,27,01,59,13.50
2010,09,27,02,00,13.50
2010,09,27,02,01,13.50
2010,09,27,02,02,13.50
2010,09,27,02,03,13.40
2010,09,27,02,04,13.40
2010,09,27,02,05,13.40
2010,09,27,02,06,13.40
2010,09,27,02,07,13.40
2010,09,27,02,08,13.30
2010,09,27,02,09,13.30
2010,09,27,02,10,13.30
2010,09,27,02,11,13.30
2010,09,27,02,12,13.30
2010,09,27,02,13,13.20
2010,09,27,02,14,13.20
2010,09,27,02,15,13.20
2010,09,27,02,16,13.20
2010,09,27,02,17,13.20
2010,09,27,02,18,13.20
2010,09,27,02,19,13.20
2010,09,27,02,20,13.10
2010,09,27,02,21,13.10
2010,09,27,02,22,13.10
2010,09,27,02,23,13.10
2010,09,27,02,24,13.10
2010,09,27,02,25,13.10
2010,09,27,02,26,13.00
2010,09,27,02,27,13.00
2010,09,27,02,28,13.00
2010,09,27,02,29,13.00
2010,09,27,02,30,13.00
2010,09,27,02,31,12.90
2010,09,27,02,32,12.90
2010,09,27,02,33,12.90
2010,09,27,02,34,12.90
2010,09,27,02,35,12.90
2010,09,27,02,36,12.90
2010,09,27,02,37,12.90
2010,09,27,02,38,12.80
2010,09,27,02,39,12.80
2010,09,27,02,40,12.80
2010,09,27,02,41,12.80
2010,09,27,02,42,12.80
2010,09,27,02,43,12.80
2010,09,27,02,44,12.80
2010,09,27,02,45,12.80
2010,09,27,02,46,12.70
2010,09,27,02,47,12.70
2010,09,27,02,48,12.70
2010,09,27,02,49,12.70
2010,09,27,02,50,12.70
2010,09,27,02,51,12.70
2010,09,27,02,52,12.70
2010,09,27,02,53,12.60
2010,09,27,02,54,12.60
2010,09,27,02,55,12.60
2010,09,27,02,56,12.60
2010,09,27,02,57,12.60
2010,09,27,02,58,12.60
2010,09,27,02,59,12.60
2010,09,27,03,00,12.50
2010,09,27,03,01,12.50
2010,09,27,03,02,12.50
2010,09,27,03,03,12.50
2010,09,27,03,04,12.40
2010,09,27,03,05,12.40
2010,09,27,03,06,12.40
2010,09,27,03,07,12.40
2010,09,27,03,08,12.40
2010,09,27,03,09,12.40
2010,09,27,03,10,12.40
2010,09,27,03,11,12.30
2010,09,27,03,12,12.30
2010,09,27,03,13,12.30
2010,09,27,03,14,12.30
2010,09,27,03,15,12.30
2010,09,27,03,16,12.30
2010,09,27,03,17,12.30
2010,09,27,03,18,12.30
2010,09,27,03,19,12.20
2010,09,27,03,20,12.20
2010,09,27,03,21,12.20
2010,09,27,03,22,12.20
2010,09,27,03,23,12.20
2010,09,27,03,24,12.20
2010,09,27,03,25,12.20
2010,09,27,03,26,12.20
2010,09,27,03,27,12.20
2010,09,27,03,28,12.20
2010,09,27,03,29,12.20
2010,09,27,03,30,12.10
2010,09,27,03,31,12.10
2010,09,27,03,32,12.10
2010,09,27,03,33,12.10
2010,09,27,03,34,12.10
2010,09,27,03,35,12.10
2010,09,27,03,36,12.10
2010,09,27,03,37,12.10
2010,09,27,03,38,12.00
2010,09,27,03,39,12.00
2010,09,27,03,40,12.00
2010,09,27,03,41,12.00
2010,09,27,03,42,12.00
2010,09,27,03,43,12.00
2010,09,27,03,44,11.90
2010,09,27,03,45,11.90
2010,09,27,03,46,11.90
2010,09,27,03,47,11.90
2010,09,27,03,48,11.90
2010,09,27,03,49,11.90
2010,09,27,03,50,11.90
2010,09,27,03,51,11.90
2010,09,27,03,52,11.90
2010,09,27,03,53,11.80
2010,09,27,03,54,11.80
2010,09,27,03,55,11.80
2010,09,27,03,56,11.80
2010,09,27,03,57,11.80
2010,09,27,03,58,11.80
2010,09,27,03,59,11.80
2010,09,27,04,00,11.80
2010,09,27,04,01,11.80
2010,09,27,04,02,11.80
2010,09,27,04,03,11.80
2010,09,27,04,04,11.80
2010,09,27,04,05,11.70
2010,09,27,04,06,11.70
2010,09,27,04,07,11.70
2010,09,27,04,08,11.70
2010,09,27,04,09,11.70
2010,09,27,04,10,11.70
2010,09,27,04,11,11.70
2010,09,27,04,12,11.60
2010,09,27,04,13,11.60
2010,09,27,04,14,11.60
2010,09,27,04,15,11.60
2010,09,27,04,16,11.60
2010,09,27,04,17,11.60
2010,09,27,04,18,11.60
2010,09,27,04,19,11.60
2010,09,27,04,20,11.50
2010,09,27,04,21,11.50
2010,09,27,04,22,11.50
2010,09,27,04,23,11.50
2010,09,27,04,24,11.50
2010,09,27,04,25,11.40
2010,09,27,04,26,11.40
2010,09,27,04,27,11.40
2010,09,27,04,28,11.40
2010,09,27,04,29,11.40
2010,09,27,04,30,11.40
2010,09,27,04,31,11.40
2010,09,27,04,32,11.40
2010,09,27,04,33,11.40
2010,09,27,04,34,11.40
2010,09,27,04,35,11.40
2010,09,27,04,36,11.40
2010,09,27,04,37,11.30
2010,09,27,04,38,11.30
2010,09,27,04,39,11.30
2010,09,27,04,40,11.30
2010,09,27,04,41,11.30
2010,09,27,04,42,11.30
2010,09,27,04,43,11.30
2010,09,27,04,44,11.30
2010,09,27,04,45,11.30
2010,09,27,04,46,11.30
2010,09,27,04,47,11.30
2010,09,27,04,48,11.30
2010,09,27,04,49,11.30
2010,09,27,04,50,11.20
2010,09,27,04,51,11.20
2010,09,27,04,52,11.20
2010,09,27,04,53,11.20
2010,09,27,04,54,11.20
2010,09,27,04,55,11.20
2010,09,27,04,56,11.30
2010,09,27,04,57,11.30
2010,09,27,04,58,11.30
2010,09,27,04,59,11.30
2010,09,27,05,00,11.30
2010,09,27,05,01,11.40
2010,09,27,05,02,11.40
2010,09,27,05,03,11.40
2010,09,27,05,04,11.40
2010,09,27,05,05,11.40
2010,09,27,05,06,11.50
2010,09,27,05,07,11.50
2010,09,27,05,08,11.50
2010,09,27,05,09,11.50
2010,09,27,05,10,11.60
2010,09,27,05,11,11.60
2010,09,27,05,12,11.60
2010,09,27,05,13,11.60
2010,09,27,05,14,11.60
2010,09,27,05,15,11.60
2010,09,27,05,16,11.60
2010,09,27,05,17,11.60
2010,09,27,05,18,11.60
2010,09,27,05,19,11.60
2010,09,27,05,20,11.60
2010,09,27,05,21,11.60
2010,09,27,05,22,11.60
2010,09,27,05,23,11.60
2010,09,27,05,24,11.60
2010,09,27,05,25,11.70
2010,09,27,05,26,11.70
2010,09,27,05,27,11.70
2010,09,27,05,28,11.70
2010,09,27,05,29,11.70
2010,09,27,05,30,11.70
2010,09,27,05,31,11.70
2010,09,27,05,32,11.70
2010,09,27,05,33,11.80
2010,09,27,05,34,11.80
2010,09,27,05,35,11.80
2010,09,27,05,36,11.80
2010,09,27,05,37,11.80
2010,09,27,05,38,11.80
2010,09,27,05,39,11.80
2010,09,27,05,40,11.80
2010,09,27,05,41,11.80
2010,09,27,05,42,11.80
2010,09,27,05,43,11.80
2010,09,27,05,44,11.80
2010,09,27,05,45,11.80
2010,09,27,05,46,11.80
2010,09,27,05,47,11.80
2010,09,27,05,48,11.80
2010,09,27,05,49,11.80
2010,09,27,05,50,11.80
2010,09,27,05,51,11.80
2010,09,27,05,52,11.80
2010,09,27,05,53,11.90
2010,09,27,05,54,11.90
2010,09,27,05,55,11.90
2010,09,27,05,56,11.90
2010,09,27,05,57,11.90
2010,09,27,05,58,11.90
2010,09,27,05,59,11.90
2010,09,27,06,00,11.90
2010,09,27,06,01,11.90
2010,09,27,06,02,12.00
2010,09,27,06,03,12.00
2010,09,27,06,04,12.00
2010,09,27,06,05,12.00
2010,09,27,06,06,12.10
2010,09,27,06,07,12.10
2010,09,27,06,08,12.10
2010,09,27,06,09,12.10
2010,09,27,06,10,12.20
2010,09,27,06,11,12.20
2010,09,27,06,12,12.20
2010,09,27,06,13,12.20
2010,09,27,06,14,12.20
2010,09,27,06,15,12.20
2010,09,27,06,16,12.20
2010,09,27,06,17,12.20
2010,09,27,06,18,12.20
2010,09,27,06,19,12.20
2010,09,27,06,20,12.20
2010,09,27,06,21,12.20
2010,09,27,06,22,12.20
2010,09,27,06,23,12.20
2010,09,27,06,24,12.20
2010,09,27,06,25,12.20
2010,09,27,06,26,12.20
2010,09,27,06,27,12.20
2010,09,27,06,28,12.20
2010,09,27,06,29,12.20
2010,09,27,06,30,12.20
2010,09,27,06,31,12.20
2010,09,27,06,32,12.30
2010,09,27,06,33,12.30
2010,09,27,06,34,12.30
2010,09,27,06,35,12.30
2010,09,27,06,36,12.30
2010,09,27,06,37,12.30
2010,09,27,06,38,12.30
2010,09,27,06,39,12.30
2010,09,27,06,40,12.30
2010,09,27,06,41,12.30
2010,09,27,06,42,12.30
2010,09,27,06,43,12.30
2010,09,27,06,44,12.30
2010,09,27,06,45,12.30
2010,09,27,06,46,12.40
2010,09,27,06,47,12.40
2010,09,27,06,48,12.40
2010,09,27,06,49,12.40
2010,09,27,06,50,12.40
2010,09,27,06,51,12.40
2010,09,27,06,52,12.40
2010,09,27,06,53,12.40
2010,09,27,06,54,12.40
2010,09,27,06,55,12.40
2010,09,27,06,56,12.40
2010,09,27,06,57,12.40
2010,09,27,06,58,12.40
2010,09,27,06,59,12.40
2010,09,27,07,00,12.40
2010,09,27,07,01,12.40
2010,09,27,07,02,12.50
2010,09,27,07,03,12.50
2010,09,27,07,04,12.50
2010,09,27,07,05,12.50
2010,09,27,07,06,12.50
2010,09,27,07,07,12.50
2010,09,27,07,08,12.50
2010,09,27,07,09,12.50
2010,09,27,07,10,12.50
2010,09,27,07,11,12.50
2010,09,27,07,12,12.50
2010,09,27,07,13,12.50
2010,09,27,07,14,12.50
2010,09,27,07,15,12.50
2010,09,27,07,16,12.50
2010,09,27,07,17,12.50
2010,09,27,07,18,12.50
2010,09,27,07,19,12.50
2010,09,27,07,20,12.50
2010,09,27,07,21,12.50
2010,09,27,07,22,12.50
2010,09,27,07,23,12.50
2010,09,27,07,24,12.50
2010,09,27,07,25,12.60
2010,09,27,07,26,12.60
2010,09,27,07,27,12.60
2010,09,27,07,28,12.60
2010,09,27,07,29,12.60
2010,09,27,07,30,12.60
2010,09,27,07,31,12.60
2010,09,27,07,32,12.60
2010,09,27,07,33,12.60
2010,09,27,07,34,12.60
2010,09,27,07,35,12.60
2010,09,27,07,36,12.70
2010,09,27,07,37,12.70
2010,09,27,07,38,12.70
2010,09,27,07,39,12.70
2010,09,27,07,40,12.70
2010,09,27,07,41,12.80
2010,09,27,07,42,12.80
2010,09,27,07,43,12.80
2010,09,27,07,44,12.80
2010,09,27,07,45,12.80
2010,09,27,07,46,12.80
2010,09,27,07,47,12.90
2010,09,27,07,48,12.80
2010,09,27,07,49,12.80
2010,09,27,07,50,12.80
2010,09,27,07,51,12.80
2010,09,27,07,52,12.80
2010,09,27,07,53,12.80
2010,09,27,07,54,12.80
2010,09,27,07,55,12.90
2010,09,27,07,56,12.90
2010,09,27,07,57,12.90
2010,09,27,07,58,12.90
2010,09,27,07,59,12.90
2010,09,27,08,00,12.90
2010,09,27,08,01,12.90
2010,09,27,08,02,13.00
2010,09,27,08,03,13.00
2010,09,27,08,04,13.10
2010,09,27,08,05,13.10
2010,09,27,08,06,13.10
2010,09,27,08,07,13.10
2010,09,27,08,08,13.10
2010,09,27,08,09,13.10
2010,09,27,08,10,13.20
2010,09,27,08,11,13.20
2010,09,27,08,12,13.20
2010,09,27,08,13,13.20
2010,09,27,08,14,13.20
2010,09,27,08,15,13.20
2010,09,27,08,16,13.20
2010,09,27,08,17,13.30
2010,09,27,08,18,13.30
2010,09,27,08,19,13.30
2010,09,27,08,20,13.30
2010,09,27,08,21,13.30
2010,09,27,08,22,13.30
2010,09,27,08,23,13.30
2010,09,27,08,24,13.30
2010,09,27,08,25,13.40
2010,09,27,08,26,13.40
2010,09,27,08,27,13.40
2010,09,27,08,28,13.40
2010,09,27,08,29,13.50
2010,09,27,08,30,13.50
2010,09,27,08,31,13.50
2010,09,27,08,32,13.50
2010,09,27,08,33,13.60
2010,09,27,08,34,13.60
2010,09,27,08,35,13.60
2010,09,27,08,36,13.60
2010,09,27,08,37,13.70
2010,09,27,08,38,13.70
2010,09,27,08,39,13.70
2010,09,27,08,40,13.70
2010,09,27,08,41,13.80
2010,09,27,08,42,13.80
2010,09,27,08,43,13.80
2010,09,27,08,44,13.80
2010,09,27,08,45,13.90
2010,09,27,08,46,13.90
2010,09,27,08,47,13.90
2010,09,27,08,48,13.90
2010,09,27,08,49,13.90
2010,09,27,08,50,13.90
2010,09,27,08,51,13.90
2010,09,27,08,52,13.90
2010,09,27,08,53,13.90
2010,09,27,08,54,13.90
2010,09,27,08,55,13.90
2010,09,27,08,56,14.00
2010,09,27,08,57,14.00
2010,09,27,08,58,14.00
2010,09,27,08,59,14.00
2010,09,27,09,00,14.10
2010,09,27,09,01,14.10
2010,09,27,09,02,14.10
2010,09,27,09,03,14.10
2010,09,27,09,04,14.10
2010,09,27,09,05,14.10
2010,09,27,09,06,14.20
2010,09,27,09,07,14.20
2010,09,27,09,08,14.20
2010,09,27,09,09,14.20
2010,09,27,09,10,14.20
2010,09,27,09,11,14.20
2010,09,27,09,12,14.20
2010,09,27,09,13,14.30
2010,09,27,09,14,14.30
2010,09,27,09,15,14.30
2010,09,27,09,16,14.30
2010,09,27,09,17,14.30
2010,09,27,09,18,14.40
2010,09,27,09,19,14.40
2010,09,27,09,20,14.40
2010,09,27,09,21,14.40
2010,09,27,09,22,14.40
2010,09,27,09,23,14.40
2010,09,27,09,24,14.40
2010,09,27,09,25,14.40
2010,09,27,09,26,14.40
2010,09,27,09,27,14.40
2010,09,27,09,28,14.40
2010,09,27,09,29,14.40
2010,09,27,09,30,14.40
2010,09,27,09,31,14.40
2010,09,27,09,32,14.40
2010,09,27,09,33,14.40
2010,09,27,09,34,14.50
2010,09,27,09,35,14.50
2010,09,27,09,36,14.50
2010,09,27,09,37,14.50
2010,09,27,09,38,14.60
2010,09,27,09,39,14.60
2010,09,27,09,40,14.60
2010,09,27,09,41,14.70
2010,09,27,09,42,14.70
2010,09,27,09,43,14.70
2010,09,27,09,44,14.80
2010,09,27,09,45,14.80
2010,09,27,09,46,14.80
2010,09,27,09,47,14.80
2010,09,27,09,48,14.90
2010,09,27,09,49,14.90
2010,09,27,09,50,14.90
2010,09,27,09,51,14.90
2010,09,27,09,52,14.90
2010,09,27,09,53,14.90
2010,09,27,09,54,14.90
2010,09,27,09,55,14.90
2010,09,27,09,56,14.90
2010,09,27,09,57,14.90
2010,09,27,09,58,14.90
2010,09,27,09,59,15.00
2010,09,27,10,00,15.00
2010,09,27,10,01,15.00
2010,09,27,10,02,15.00
2010,09,27,10,03,15.00
2010,09,27,10,04,15.00
2010,09,27,10,05,15.00
2010,09,27,10,06,15.00
2010,09,27,10,07,15.00
2010,09,27,10,08,15.00
2010,09,27,10,09,15.00
2010,09,27,10,10,15.00
2010,09,27,10,11,15.00
2010,09,27,10,12,15.00
2010,09,27,10,13,15.00
2010,09,27,10,14,15.00
2010,09,27,10,15,15.00
2010,09,27,10,16,15.00
2010,09,27,10,17,15.00
2010,09,27,10,18,15.00
2010,09,27,10,19,15.00
2010,09,27,10,20,15.00
2010,09,27,10,21,15.00
2010,09,27,10,22,15.00
2010,09,27,10,23,15.00
2010,09,27,10,24,15.00
2010,09,27,10,25,15.00
2010,09,27,10,26,15.00
2010,09,27,10,27,15.00
2010,09,27,10,28,15.00
2010,09,27,10,29,15.00
2010,09,27,10,30,15.00
2010,09,27,10,31,15.00
2010,09,27,10,32,15.00
2010,09,27,10,33,15.00
2010,09,27,10,34,15.00
2010,09,27,10,35,15.00
2010,09,27,10,36,15.10
2010,09,27,10,37,15.00
2010,09,27,10,38,15.00
2010,09,27,10,39,15.00
2010,09,27,10,40,15.00
2010,09,27,10,41,15.00
2010,09,27,10,42,15.00
2010,09,27,10,43,15.00
2010,09,27,10,44,15.00
2010,09,27,10,45,15.00
2010,09,27,10,46,15.00
2010,09,27,10,47,15.00
2010,09,27,10,48,15.00
2010,09,27,10,49,15.00
2010,09,27,10,50,15.00
2010,09,27,10,51,15.00
2010,09,27,10,52,15.00
2010,09,27,10,53,15.00
2010,09,27,10,54,15.00
2010,09,27,10,55,15.10
2010,09,27,10,56,15.10
2010,09,27,10,57,15.10
2010,09,27,10,58,15.10
2010,09,27,10,59,15.10
2010,09,27,11,00,15.10
2010,09,27,11,01,15.10
2010,09,27,11,02,15.10
2010,09,27,11,03,15.20
2010,09,27,11,04,15.20
2010,09,27,11,05,15.20
2010,09,27,11,06,15.20
2010,09,27,11,07,15.20
2010,09,27,11,08,15.20
2010,09,27,11,09,15.30
2010,09,27,11,10,15.30
2010,09,27,11,11,15.30
2010,09,27,11,12,15.30
2010,09,27,11,13,15.30
2010,09,27,11,14,15.40
2010,09,27,11,15,15.40
2010,09,27,11,16,15.50
2010,09,27,11,17,15.50
2010,09,27,11,18,15.60
2010,09,27,11,19,15.60
2010,09,27,11,20,15.60
2010,09,27,11,21,15.70
2010,09,27,11,22,15.70
2010,09,27,11,23,15.70
2010,09,27,11,24,15.70
2010,09,27,11,25,15.80
2010,09,27,11,26,15.80
2010,09,27,11,27,15.90
2010,09,27,11,28,15.90
2010,09,27,11,29,15.90
2010,09,27,11,30,15.90
2010,09,27,11,31,15.90
2010,09,27,11,32,15.90
2010,09,27,11,33,16.00
2010,09,27,11,34,16.00
2010,09,27,11,35,16.00
2010,09,27,11,36,16.10
2010,09,27,11,37,16.10
2010,09,27,11,38,16.10
2010,09,27,11,39,16.10
2010,09,27,11,40,16.10
2010,09,27,11,41,16.10
2010,09,27,11,42,16.10
2010,09,27,11,43,16.10
2010,09,27,11,44,16.20
2010,09,27,11,45,16.20
2010,09,27,11,46,16.20
2010,09,27,11,47,16.30
2010,09,27,11,48,16.30
2010,09,27,11,49,16.30
2010,09,27,11,50,16.30
2010,09,27,11,51,16.30
2010,09,27,11,52,16.30
2010,09,27,11,53,16.40
2010,09,27,11,54,16.40
2010,09,27,11,55,16.40
2010,09,27,11,56,16.40
2010,09,27,11,57,16.40
2010,09,27,11,58,16.40
2010,09,27,11,59,16.30
2010,09,27,12,00,16.40
2010,09,27,12,01,16.30
2010,09,27,12,02,16.30
2010,09,27,12,03,16.30
2010,09,27,12,04,16.30
2010,09,27,12,05,16.40
2010,09,27,12,06,16.30
2010,09,27,12,07,16.30
2010,09,27,12,08,16.40
2010,09,27,12,09,16.40
2010,09,27,12,10,16.40
2010,09,27,12,11,16.40
2010,09,27,12,12,16.40
2010,09,27,12,13,16.40
2010,09,27,12,14,16.50
2010,09,27,12,15,16.50
2010,09,27,12,16,16.50
2010,09,27,12,17,16.60
2010,09,27,12,18,16.60
2010,09,27,12,19,16.60
2010,09,27,12,20,16.70
2010,09,27,12,21,16.70
2010,09,27,12,22,16.70
2010,09,27,12,23,16.70
2010,09,27,12,24,16.70
2010,09,27,12,25,16.80
2010,09,27,12,26,16.80
2010,09,27,12,27,16.80
2010,09,27,12,28,16.80
2010,09,27,12,29,16.80
2010,09,27,12,30,16.80
2010,09,27,12,31,16.80
2010,09,27,12,32,16.80
2010,09,27,12,33,16.90
2010,09,27,12,34,16.90
2010,09,27,12,35,16.90
2010,09,27,12,36,16.90
2010,09,27,12,37,16.90
2010,09,27,12,38,16.90
2010,09,27,12,39,16.90
2010,09,27,12,40,17.00
2010,09,27,12,41,17.00
2010,09,27,12,42,17.00
2010,09,27,12,43,17.00
2010,09,27,12,44,17.10
2010,09,27,12,45,17.10
2010,09,27,12,46,17.10
2010,09,27,12,47,17.10
2010,09,27,12,48,17.10
2010,09,27,12,49,17.10
2010,09,27,12,50,17.10
2010,09,27,12,51,17.10
2010,09,27,12,52,17.10
2010,09,27,12,53,17.10
2010,09,27,12,54,17.20
2010,09,27,12,55,17.20
2010,09,27,12,56,17.20
2010,09,27,12,57,17.20
2010,09,27,12,58,17.20
2010,09,27,12,59,17.20
2010,09,27,13,00,17.20
2010,09,27,13,01,17.20
2010,09,27,13,02,17.20
2010,09,27,13,03,17.30
2010,09,27,13,04,17.30
2010,09,27,13,05,17.30
2010,09,27,13,06,17.30
2010,09,27,13,07,17.40
2010,09,27,13,08,17.40
2010,09,27,13,09,17.40
2010,09,27,13,10,17.50
2010,09,27,13,11,17.60
2010,09,27,13,12,17.60
2010,09,27,13,13,17.60
2010,09,27,13,14,17.70
2010,09,27,13,15,17.70
2010,09,27,13,16,17.70
2010,09,27,13,17,17.70
2010,09,27,13,18,17.80
2010,09,27,13,19,17.80
2010,09,27,13,20,17.80
2010,09,27,13,21,17.80
2010,09,27,13,22,17.80
2010,09,27,13,23,17.80
2010,09,27,13,24,17.80
2010,09,27,13,25,17.80
2010,09,27,13,26,17.80
2010,09,27,13,27,17.90
2010,09,27,13,28,17.90
2010,09,27,13,29,17.90
2010,09,27,13,30,17.90
2010,09,27,13,31,17.90
2010,09,27,13,32,18.00
2010,09,27,13,33,18.00
2010,09,27,13,34,18.10
2010,09,27,13,35,18.10
2010,09,27,13,36,18.10
2010,09,27,13,37,18.20
2010,09,27,13,38,18.20
2010,09,27,13,39,18.30
2010,09,27,13,40,18.30
2010,09,27,13,41,18.30
2010,09,27,13,42,18.30
2010,09,27,13,43,18.40
2010,09,27,13,44,18.40
2010,09,27,13,45,18.40
2010,09,27,13,46,18.40
2010,09,27,13,47,18.50
2010,09,27,13,48,18.50
2010,09,27,13,49,18.50
2010,09,27,13,50,18.60
2010,09,27,13,51,18.60
2010,09,27,13,52,18.60
2010,09,27,13,53,18.60
2010,09,27,13,54,18.70
2010,09,27,13,55,18.70
2010,09,27,13,56,18.70
2010,09,27,13,57,18.70
2010,09,27,13,58,18.80
2010,09,27,13,59,18.80
2010,09,27,14,00,18.80
2010,09,27,14,01,18.80
2010,09,27,14,02,18.80
2010,09,27,14,03,18.80
2010,09,27,14,04,18.80
2010,09,27,14,05,18.80
2010,09,27,14,06,18.80
2010,09,27,14,07,18.90
2010,09,27,14,08,18.90
2010,09,27,14,09,18.90
2010,09,27,14,10,18.90
2010,09,27,14,11,18.90
2010,09,27,14,12,18.90
2010,09,27,14,13,18.90
2010,09,27,14,14,18.90
2010,09,27,14,15,18.90
2010,09,27,14,16,18.90
2010,09,27,14,17,18.90
2010,09,27,14,18,19.00
2010,09,27,14,19,19.00
2010,09,27,14,20,19.00
2010,09,27,14,21,19.00
2010,09,27,14,22,19.00
2010,09,27,14,23,19.00
2010,09,27,14,24,19.00
2010,09,27,14,25,19.00
2010,09,27,14,26,18.90
2010,09,27,14,27,18.90
2010,09,27,14,28,18.90
2010,09,27,14,29,18.90
2010,09,27,14,30,18.90
2010,09,27,14,31,18.90
2010,09,27,14,32,18.90
2010,09,27,14,33,18.90
2010,09,27,14,34,18.80
2010,09,27,14,35,18.80
2010,09,27,14,36,18.70
2010,09,27,14,37,18.70
2010,09,27,14,38,18.70
2010,09,27,14,39,18.60
2010,09,27,14,40,18.50
2010,09,27,14,41,18.40
2010,09,27,14,42,18.30
2010,09,27,14,43,18.20
2010,09,27,14,44,18.10
2010,09,27,14,45,18.00
2010,09,27,14,46,17.80
2010,09,27,14,47,17.70
2010,09,27,14,48,17.50
2010,09,27,14,49,17.40
2010,09,27,14,50,17.30
2010,09,27,14,51,17.20
2010,09,27,14,52,17.10
2010,09,27,14,53,17.00
2010,09,27,14,54,17.00
2010,09,27,14,55,16.90
2010,09,27,14,56,16.80
2010,09,27,14,57,16.70
2010,09,27,14,58,16.60
2010,09,27,14,59,16.50
2010,09,27,15,00,16.40
2010,09,27,15,01,16.30
2010,09,27,15,02,16.30
2010,09,27,15,03,16.20
2010,09,27,15,04,16.20
2010,09,27,15,05,16.20
2010,09,27,15,06,16.10
2010,09,27,15,07,16.10
2010,09,27,15,08,16.10
2010,09,27,15,09,16.00
2010,09,27,15,10,16.00
2010,09,27,15,11,15.90
2010,09,27,15,12,15.90
2010,09,27,15,13,15.90
2010,09,27,15,14,15.80
2010,09,27,15,15,15.80
2010,09,27,15,16,15.80
2010,09,27,15,17,15.80
2010,09,27,15,18,15.80
2010,09,27,15,19,15.80
2010,09,27,15,20,15.80
2010,09,27,15,21,15.70
2010,09,27,15,22,15.70
2010,09,27,15,23,15.70
2010,09,27,15,24,15.70
2010,09,27,15,25,15.70
2010,09,27,15,26,15.70
2010,09,27,15,27,15.70
2010,09,27,15,28,15.70
2010,09,27,15,29,15.70
2010,09,27,15,30,15.70
2010,09,27,15,31,15.70
2010,09,27,15,32,15.70
2010,09,27,15,33,15.70
2010,09,27,15,34,15.70
2010,09,27,15,35,15.70
2010,09,27,15,36,15.70
2010,09,27,15,37,15.70
2010,09,27,15,38,15.70
2010,09,27,15,39,15.70
2010,09,27,15,40,15.70
2010,09,27,15,41,15.70
2010,09,27,15,42,15.80
2010,09,27,15,43,15.80
2010,09,27,15,44,15.80
2010,09,27,15,45,15.80
2010,09,27,15,46,15.80
2010,09,27,15,47,15.90
2010,09,27,15,48,15.90
2010,09,27,15,49,15.90
2010,09,27,15,50,15.90
2010,09,27,15,51,15.90
2010,09,27,15,52,15.90
2010,09,27,15,53,16.00
2010,09,27,15,54,16.00
2010,09,27,15,55,16.00
2010,09,27,15,56,16.00
2010,09,27,15,57,16.00
2010,09,27,15,58,16.00
2010,09,27,15,59,16.00
2010,09,27,16,00,16.10
2010,09,27,16,01,16.10
2010,09,27,16,02,16.10
2010,09,27,16,03,16.10
2010,09,27,16,04,16.10
2010,09,27,16,05,16.10
2010,09,27,16,06,16.10
2010,09,27,16,07,16.10
2010,09,27,16,08,16.10
2010,09,27,16,09,16.10
2010,09,27,16,10,16.10
2010,09,27,16,11,16.10
2010,09,27,16,12,16.20
2010,09,27,16,13,16.20
2010,09,27,16,14,16.20
2010,09,27,16,15,16.20
2010,09,27,16,16,16.20
2010,09,27,16,17,16.20
2010,09,27,16,18,16.20
2010,09,27,16,19,16.30
2010,09,27,16,20,16.30
2010,09,27,16,21,16.30
2010,09,27,16,22,16.30
2010,09,27,16,23,16.30
2010,09,27,16,24,16.30
2010,09,27,16,25,16.30
2010,09,27,16,26,16.30
2010,09,27,16,27,16.30
2010,09,27,16,28,16.40
2010,09,27,16,29,16.40
2010,09,27,16,30,16.40
2010,09,27,16,31,16.40
2010,09,27,16,32,16.40
2010,09,27,16,33,16.40
2010,09,27,16,34,16.40
2010,09,27,16,35,16.40
2010,09,27,16,36,16.40
2010,09,27,16,37,16.40
2010,09,27,16,38,16.40
2010,09,27,16,39,16.40
2010,09,27,16,40,16.40
2010,09,27,16,41,16.40
2010,09,27,16,42,16.40
2010,09,27,16,43,16.50
2010,09,27,16,44,16.50
2010,09,27,16,45,16.50
2010,09,27,16,46,16.50
2010,09,27,16,47,16.50
2010,09,27,16,48,16.50
2010,09,27,16,49,16.50
2010,09,27,16,50,16.50
2010,09,27,16,51,16.50
2010,09,27,16,52,16.50
2010,09,27,16,53,16.50
2010,09,27,16,54,16.50
2010,09,27,16,55,16.50
2010,09,27,16,56,16.50
2010,09,27,16,57,16.60
2010,09,27,16,58,16.60
2010,09,27,16,59,16.60
2010,09,27,17,00,16.60
2010,09,27,17,01,16.60
2010,09,27,17,02,16.60
2010,09,27,17,03,16.60
2010,09,27,17,04,16.60
2010,09,27,17,05,16.60
2010,09,27,17,06,16.60
2010,09,27,17,07,16.60
2010,09,27,17,08,16.60
2010,09,27,17,09,16.60
2010,09,27,17,10,16.60
2010,09,27,17,11,16.60
2010,09,27,17,12,16.60
2010,09,27,17,13,16.60
2010,09,27,17,14,16.60
2010,09,27,17,15,16.60
2010,09,27,17,16,16.60
2010,09,27,17,17,16.60
2010,09,27,17,18,16.60
2010,09,27,17,19,16.60